Date String (YYYY-MM-DD hh:mm:ss) UTC,Instrument flags,Ambient pressure (hPa),Sample flow (lpm),Bypass flow (lpm),Sample temperature (°C),Ambient temperature (°C),ASC tube jacket temperature (°C),LED temperature (°C),Box temperature (°C),Sample RH (%),Span deviation,Mass concentration (μg/m³),Mass concentration (μg/m³),Mass concentration (μg/m³)
DateTimeUTC,F1_M11,P_M11,Q1_M11,Q2_M11,T1_M11,T2_M11,T3_M11,T4_M11,T5_M11,U1_M11,ZSPAN_M11,X0_M11,X2_M11,X1_M11
2022-12-19 06:00:00,,0820.8,4.99,0.00,22.3,21.2,00.0,31.1,24.1,06.8,0000.0,0012.43,0006.15,0005.46
2022-12-19 06:01:00,,0820.8,5.02,0.00,22.3,21.1,00.0,31.1,24.1,06.9,0000.0,0012.15,0006.18,0005.43
2022-12-19 06:02:00,,0820.8,5.01,0.00,22.3,21.0,00.0,31.1,24.1,06.7,0000.0,0011.94,0006.18,0005.40
2022-12-19 06:03:00,,0820.7,4.95,0.00,22.3,20.9,00.0,31.1,24.0,06.6,0000.0,0011.90,0006.16,0005.37
2022-12-19 06:04:00,,0820.7,5.03,0.00,22.3,20.9,00.0,31.1,24.0,06.5,0000.0,0011.88,0006.12,0005.34
2022-12-19 06:05:00,,0820.7,5.04,0.00,22.2,20.8,00.0,31.1,24.0,06.4,0000.0,0011.38,0006.07,0005.32
2022-12-19 06:06:00,,0820.7,4.96,0.00,22.2,20.8,00.0,31.1,24.0,06.4,0000.0,0010.78,0006.02,0005.30
2022-12-19 06:07:00,,0820.7,4.99,0.00,22.2,20.7,00.0,31.1,24.0,06.5,0000.0,0011.39,0006.01,0005.27
2022-12-19 06:08:00,,0820.7,5.03,0.00,22.2,20.7,00.0,31.1,23.9,06.5,0000.0,0011.25,0005.96,0005.24
2022-12-19 06:09:00,,0820.8,4.99,0.00,22.2,20.6,00.0,31.1,23.9,06.3,0000.0,0011.06,0005.88,0005.17
2022-12-19 06:10:00,,0820.8,4.97,0.00,22.1,20.6,00.0,31.1,23.9,06.2,0000.0,0011.48,0005.82,0005.10
2022-12-19 06:11:00,,0820.8,5.04,0.00,22.2,21.2,00.0,31.0,24.0,06.2,0000.0,0011.68,0005.73,0005.03
2022-12-19 06:12:00,,0820.9,4.97,0.00,22.3,22.1,00.0,31.0,24.2,06.1,0000.0,0011.75,0005.65,0004.95
2022-12-19 06:13:00,,0820.9,5.04,0.00,22.3,22.1,00.0,31.0,24.3,06.1,0000.0,0012.00,0005.53,0004.87
2022-12-19 06:14:00,,0820.9,4.98,0.00,22.3,21.8,00.0,31.1,24.2,06.0,0000.0,0012.35,0005.47,0004.79
2022-12-19 06:15:00,,0820.9,5.01,0.00,22.3,21.5,00.0,31.1,24.1,05.9,0000.0,0012.58,0005.40,0004.71
2022-12-19 06:16:00,,0820.8,5.02,0.00,22.3,21.2,00.0,31.1,24.1,05.9,0000.0,0012.63,0005.37,0004.63
2022-12-19 06:17:00,,0820.8,4.99,0.00,22.3,21.1,00.0,31.1,24.1,06.0,0000.0,0012.72,0005.35,0004.56
2022-12-19 06:18:00,,0820.8,4.98,0.00,22.3,21.0,00.0,31.1,24.0,06.0,0000.0,0011.89,0005.28,0004.49
2022-12-19 06:19:00,,0820.8,5.02,0.00,22.2,20.8,00.0,31.1,24.0,06.0,0000.0,0011.69,0005.16,0004.40
2022-12-19 06:20:00,,0820.8,5.02,0.00,22.2,20.7,00.0,31.1,24.0,05.8,0000.0,0011.69,0005.09,0004.31
2022-12-19 06:21:00,,0820.8,4.95,0.00,22.2,20.6,00.0,31.1,23.9,05.8,0000.0,0011.21,0004.99,0004.24
2022-12-19 06:22:00,,0820.8,5.01,0.00,22.2,20.6,00.0,31.1,23.9,05.9,0000.0,0010.97,0004.94,0004.18
2022-12-19 06:23:00,,0820.7,5.03,0.00,22.2,20.6,00.0,31.1,23.9,05.9,0000.0,0010.93,0004.87,0004.12
2022-12-19 06:24:00,,0820.7,4.99,0.00,22.1,20.5,00.0,31.1,23.9,05.9,0000.0,0010.63,0004.83,0004.08
2022-12-19 06:25:00,,0820.7,4.97,0.00,22.1,20.5,00.0,31.0,23.9,05.9,0000.0,0010.00,0004.76,0004.04
2022-12-19 06:26:00,,0820.7,5.02,0.00,22.1,20.5,00.0,31.0,23.8,06.0,0000.0,0009.69,0004.73,0004.04
2022-12-19 06:27:00,,0820.7,5.03,0.00,22.1,20.8,00.0,31.0,23.9,06.0,0000.0,0009.38,0004.73,0004.06
2022-12-19 06:28:00,,0820.7,4.95,0.00,22.2,21.7,00.0,30.9,24.1,06.0,0000.0,0009.26,0004.71,0004.07
2022-12-19 06:29:00,,0820.7,5.03,0.00,22.3,22.3,00.0,31.0,24.3,06.0,0000.0,0009.21,0004.69,0004.08
2022-12-19 06:30:00,,0820.6,4.98,0.00,22.3,22.1,00.0,31.0,24.3,05.9,0000.0,0009.25,0004.72,0004.09
2022-12-19 06:31:00,,0820.7,5.02,0.00,22.3,21.7,00.0,31.1,24.2,06.0,0000.0,0009.35,0004.79,0004.14
2022-12-19 06:32:00,,0820.7,5.04,0.00,22.3,21.5,00.0,31.1,24.2,06.0,0000.0,0010.09,0004.89,0004.19
2022-12-19 06:33:00,,0820.7,4.95,0.00,22.3,21.3,00.0,31.1,24.1,06.1,0000.0,0010.37,0004.94,0004.26
2022-12-19 06:34:00,,0820.7,5.04,0.00,22.3,21.2,00.0,31.1,24.1,06.2,0000.0,0010.57,0005.01,0004.34
2022-12-19 06:35:00,,0820.7,5.02,0.00,22.3,21.1,00.0,31.1,24.1,06.3,0000.0,0010.61,0005.07,0004.41
2022-12-19 06:36:00,,0820.7,4.95,0.00,22.3,21.0,00.0,31.1,24.0,06.3,0000.0,0010.61,0005.14,0004.49
2022-12-19 06:37:00,,0820.7,5.03,0.00,22.3,21.0,00.0,31.1,24.0,06.3,0000.0,0011.10,0005.20,0004.55
2022-12-19 06:38:00,,0820.7,5.03,0.00,22.3,21.0,00.0,31.1,24.0,06.3,0000.0,0011.92,0005.23,0004.59
2022-12-19 06:39:00,,0820.8,4.94,0.00,22.2,20.9,00.0,31.1,24.0,06.3,0000.0,0012.34,0005.28,0004.63
2022-12-19 06:40:00,,0820.8,5.03,0.00,22.2,20.9,00.0,31.1,23.9,06.2,0000.0,0012.74,0005.32,0004.67
2022-12-19 06:41:00,,0820.8,5.02,0.00,22.2,20.7,00.0,31.1,23.9,06.2,0000.0,0013.01,0005.34,0004.71
2022-12-19 06:42:00,,0820.8,4.95,0.00,22.2,20.6,00.0,31.1,23.9,06.2,0000.0,0013.01,0005.33,0004.71
2022-12-19 06:43:00,,0820.8,5.03,0.00,22.2,20.5,00.0,31.1,23.9,06.2,0000.0,0013.04,0005.34,0004.71
2022-12-19 06:44:00,,0820.8,5.03,0.00,22.1,20.8,00.0,31.0,23.9,06.3,0000.0,0013.03,0005.37,0004.70
2022-12-19 06:45:00,,0820.9,4.96,0.00,22.2,21.6,00.0,31.0,24.1,06.3,0000.0,0012.77,0005.38,0004.70
2022-12-19 06:46:00,,0820.8,5.03,0.00,22.3,22.2,00.0,31.0,24.3,06.3,0000.0,0013.35,0005.39,0004.70
2022-12-19 06:47:00,,0820.8,4.97,0.00,22.4,22.0,00.0,31.1,24.3,06.2,0000.0,0013.50,0005.39,0004.68
2022-12-19 06:48:00,,0820.8,5.02,0.00,22.4,21.7,00.0,31.1,24.2,06.2,0000.0,0013.06,0005.35,0004.65
2022-12-19 06:49:00,,0820.7,5.04,0.00,22.3,21.5,00.0,31.1,24.2,06.1,0000.0,0012.30,0005.36,0004.61
2022-12-19 06:50:00,,0820.7,4.96,0.00,22.3,21.3,00.0,31.1,24.2,06.0,0000.0,0011.95,0005.32,0004.57
2022-12-19 06:51:00,,0820.8,5.01,0.00,22.3,21.1,00.0,31.1,24.1,06.0,0000.0,0011.79,0005.29,0004.54
2022-12-19 06:52:00,,0820.8,5.03,0.00,22.3,21.1,00.0,31.1,24.1,06.0,0000.0,0012.66,0005.23,0004.50
2022-12-19 06:53:00,,0820.7,4.99,0.00,22.3,21.0,00.0,31.1,24.1,06.0,0000.0,0012.99,0005.21,0004.47
2022-12-19 06:54:00,,0820.7,4.99,0.00,22.3,20.9,00.0,31.1,24.0,05.9,0000.0,0013.00,0005.15,0004.44
2022-12-19 06:55:00,,0820.7,5.04,0.00,22.3,20.9,00.0,31.1,24.0,05.9,0000.0,0012.77,0005.08,0004.40
2022-12-19 06:56:00,,0820.8,5.01,0.00,22.2,20.9,00.0,31.1,24.0,05.9,0000.0,0013.00,0005.03,0004.33
2022-12-19 06:57:00,,0820.7,4.96,0.00,22.2,20.8,00.0,31.1,24.0,05.9,0000.0,0012.42,0004.94,0004.26
2022-12-19 06:58:00,,0820.7,5.02,0.00,22.2,20.7,00.0,31.1,24.0,05.9,0000.0,0011.90,0004.85,0004.18
2022-12-19 06:59:00,,0820.6,5.02,0.00,22.2,20.7,00.0,31.1,23.9,05.9,0000.0,0011.93,0004.79,0004.12
